THOR ABLESTAR DEB, 325

Orbit data source: Space-Track

THOR ABLESTAR DEB, 325 is space debris in LEO originally from a launch on Thu, 29 Jun 1961 UTC launched from the Air Force Eastern Test Range (AFETR). Debris objects in space refer to the collection of defunct objects orbiting the Earth. Examples of debris include non-operational satellites, rocket bodies, and fragments generated from explosions, collisions, or faulty payload assembly.

Loading next visibility...
Identifier
325, 1961-015DB
Orbit
LEO
Country
Flag of USUS
Related business
Manufacturer
Unknown
Mission
Spacecraft
Bus & Motor
Unknown
Mass
Unknown
Launch date (UTC)
1961-06-29 (65 years ago)
Launch vehicle
Unknown
Launch site
Air Force Eastern Test Range (AFETR)
Object type
Payload
Rocket body
Debris
Shape & HBR
Unknown shape, 0.1 m
Radar Cross Section
Small (<0.1 m²)

Expand to show TLE details & history
Last TLE update: 1 day ago

TLE from 1 day ago
0 THOR ABLESTAR DEB
1 00325U 61015DB  26125.48559394  .00000795  00000-0  38337-3 0  9994
2 00325  66.9144 213.1322 0050113  58.4878 302.1099 14.23078572327089
Epoch: 2026-05-05T11:39Z
TLE epoch observation values (Epoch: 2026-05-05T11:39:15.316Z)
Latitude
-0.00008°
Longitude
174.95859°
Altitude
798.044 km
Speed
7.465 km/s
True Right ascension
14h 12m 31s
True Declination
0° 00' 00"
Sunlit
Object was in full shadow at epoch
Visualization orbit readout
Latitude
Unknown
Longitude
Unknown
Altitude
Unknown
Speed
Unknown
Apparent Right ascension
Unknown
Apparent Declination
Unknown
Sunlit
N/A
Visualization observer readout
Local Sidereal Time
03:20:50
Azimuth
Unknown
Elevation
Unknown
Doppler factor
Unknown
Orbital elements
Apogee altitude
849.354 km
Perigee altitude
777.277 km
Semi-major axis
7,191.452 km
Eccentricity
0.00501
Inclination
66.9144°
RAAN
213.1322°
Arg. of periapsis
58.4878°
True anomaly
301.62187°
Mean anomaly
302.1099°
Eccentric anomaly
301.86605°
Mean motion
3.55892 °/min
Orbital period
101.15 mins
BSTAR
0.00038337
Loading maneuver chart data...
Computing Atmospheric mass density...

Documentation

Showing up to 5 results
|